This is the latest recevied weather packets stored in our database for station/object K8DJB-1. If no packets are shown the sender has not sent any weather packets the latest 10 day(s).
| Time | Temp. | Humidity | Pressure | Rain* | Wind** | Luminosity | Snow |
|---|---|---|---|---|---|---|---|
| 1778004215 | 12.22° C | 41% | 1007.6 hPa | 0 mm | - | - | - |
| 1778003915 | 11.67° C | 41% | 1007.6 hPa | 0 mm | - | - | - |
| 1778003615 | 11.67° C | 42% | 1007.6 hPa | 0 mm | - | - | - |
| 1778003315 | 11.67° C | 42% | 1007.7 hPa | 0 mm | - | - | - |
| 1778003015 | 11.67° C | 38% | 1007.5 hPa | 0 mm | - | - | - |
| 1778002715 | 11.67° C | 41% | 1007.4 hPa | 0 mm | - | - | - |
| 1778002415 | 11.67° C | 39% | 1007.2 hPa | 0 mm | - | - | - |
| 1778002115 | 11.67° C | 39% | 1007.3 hPa | 0 mm | - | - | - |
| 1778001815 | 11.11° C | 38% | 1007.2 hPa | 0 mm | - | - | - |
| 1778001515 | 11.67° C | 37% | 1007.1 hPa | 0 mm | - | - | - |
| 1778001215 | 11.11° C | 38% | 1007 hPa | 0 mm | - | - | - |
| 1778000915 | 11.67° C | 38% | 1007 hPa | 0 mm | - | - | - |
| 1778000615 | 11.67° C | 39% | 1006.9 hPa | 0 mm | - | - | - |
| 1778000182 | 11.67° C | 38% | 1006.8 hPa | 0 mm | - | - | - |
| 1777999882 | 11.11° C | 42% | 1006.7 hPa | 0 mm | - | - | - |
| 1777999582 | 11.67° C | 41% | 1006.7 hPa | 0 mm | - | - | - |
| 1777999282 | 11.11° C | 39% | 1006.8 hPa | 0 mm | - | - | - |
| 1777998982 | 11.11° C | 43% | 1006.7 hPa | 0 mm | - | - | - |
| 1777998682 | 11.11° C | 38% | 1006.8 hPa | 0 mm | - | - | - |
| 1777998382 | 11.67° C | 42% | 1006.9 hPa | 0 mm | - | - | - |
| 1777998082 | 11.11° C | 41% | 1006.8 hPa | 0 mm | - | - | - |
| 1777997782 | 11.67° C | 42% | 1006.9 hPa | 0 mm | - | - | - |
| 1777997482 | 11.11° C | 45% | 1006.7 hPa | 0 mm | - | - | - |
| 1777997182 | 11.11° C | 46% | 1006.8 hPa | 0 mm | - | - | - |
| 1777996882 | 11.11° C | 42% | 1007 hPa | 0 mm | - | - | - |
* Rain latest hour (hover to see other rain measurements)
** Current wind speed in m/s (hover to see current wind gust speed)